This is the latest recevied weather packets stored in our database for station/object WD7OO. If no packets are shown the sender has not sent any weather packets the latest 10 day(s).
| Time | Temp. | Humidity | Pressure | Rain* | Wind** | Luminosity | Snow |
|---|---|---|---|---|---|---|---|
| 1788135894 | 69° F | 99% | 762.6 mmHg | 0 in | - | 0 W/m² | - |
| 1788135589 | 69° F | 99% | 762.6 mmHg | 0 in | - | 0 W/m² | - |
| 1788135284 | 69° F | 99% | 762.5 mmHg | 0 in | - | 0 W/m² | - |
| 1788134982 | 69° F | 99% | 762.6 mmHg | 0 in | - | 0 W/m² | - |
| 1788134677 | 69° F | 99% | 762.6 mmHg | 0 in | - | 0 W/m² | - |
| 1788134375 | 69° F | 99% | 762.9 mmHg | 0 in | - | 0 W/m² | - |
| 1788134071 | 69° F | 99% | 762.7 mmHg | 0.05 in | - | 1 W/m² | - |
| 1788133766 | 69° F | 99% | 762.9 mmHg | 0.05 in | - | 1 W/m² | - |
| 1788133461 | 69° F | 99% | 762.8 mmHg | 0 in | - | 2 W/m² | - |
| 1788133157 | 69° F | 99% | 763.1 mmHg | 0 in | - | 2 W/m² | - |
| 1788132852 | 69° F | 99% | 763 mmHg | 0 in | - | 4 W/m² | - |
| 1788132548 | 69° F | 99% | 762.8 mmHg | 0 in | - | 7 W/m² | - |
| 1788132243 | 69° F | 99% | 762.9 mmHg | 0 in | - | 9 W/m² | - |
| 1788131940 | 69° F | 99% | 762.6 mmHg | 0 in | - | 16 W/m² | - |
| 1788131635 | 69° F | 99% | 762.7 mmHg | 0 in | - | 21 W/m² | - |
| 1788131334 | 69° F | 99% | 762.7 mmHg | 0 in | - | 21 W/m² | - |
| 1788131030 | 69° F | 99% | 762.6 mmHg | 0 in | - | 20 W/m² | - |
| 1788130729 | 69° F | 99% | 762.7 mmHg | 0 in | - | 18 W/m² | - |
| 1788130424 | 69° F | 99% | 762.8 mmHg | 0 in | - | 16 W/m² | - |
| 1788130118 | 69° F | 99% | 762.9 mmHg | 0 in | - | 16 W/m² | - |
| 1788129813 | 69° F | 99% | 763 mmHg | 0.12 in | - | 15 W/m² | - |
| 1788129510 | 69° F | 98% | 763.3 mmHg | 0.19 in | - | 16 W/m² | - |
| 1788129206 | 70° F | 97% | 763 mmHg | 0.12 in | - | 18 W/m² | - |
| 1788128905 | 70° F | 96% | 763.2 mmHg | 0.12 in | - | 14 W/m² | - |
| 1788128600 | 70° F | 95% | 763.1 mmHg | 0.12 in | - | 11 W/m² | - |
* Rain latest hour (hover to see other rain measurements)
** Current wind speed in m/s (hover to see current wind gust speed)